Regional Weather Roundup
Issued by NWS

Home | Current Version | Previous Version | Graphics & Text | Print | Product List | Glossary On
Versions: 1 2 3 4 5 6 7 8 9 10 11 12 13 14 15 16 17 18 19 20 21 22 23 24 25 26 27 28 29 30 31 32 33 34 35 36 37 38 39 40 41 42 43 44 45 46 47 48 49 50
836
ASUS43 KIND 252009
RWRIN

WEATHER ROUNDUP FOR INDIANA
NATIONAL WEATHER SERVICE INDIANAPOLIS IN
400 PM EDT WED MAY 25 2016

NOTE: "FAIR" INDICATES FEW OR NO CLOUDS BELOW 12,000 FEET WITH NO
SIGNIFICANT WEATHER AND/OR OBSTRUCTIONS TO VISIBILITY.

* - STATION DOES NOT REPORT WEATHER SUCH AS PRECIPITATION OR FOG.

+ - STATION NOT QUALITY CONTROLLED BY THE NATIONAL WEATHER SERVICE.
    USE DATA WITH CAUTION...ESPECIALLY DEWPOINT AND RELATIVE
    HUMIDITY OBSERVATIONS.

INZ001>003-010>013-019-020-252100-
NORTHWEST INDIANA

CITY           SKY/WX    TMP DP  RH WIND       PRES   REMARKS
GARY /AIRPORT/ PTSUNNY   86  68  54 S8        29.95F
KNOX *+          N/A     86  41  20 S12G20    29.97F
LA PORTE +     MOSUNNY   87  57  35 SE6G16    29.97F
MICHIGAN CITY+ MOSUNNY   86  61  42 S5        29.96F
MONTICELLO +   MOSUNNY   85  54  33 SW14G20   29.97F
RENSSELAER +   PTSUNNY   88  54  31 S13G20    29.96F
VALPARAISO     MOSUNNY   86  58  38 S13G21    29.96F

$$

LMZ046-743>745-252100-
SOUTHERN LAKE MICHIGAN

STATION/POSITION TIME  TEMP    WIND        PRES    WAVE
                       AIR SEA DIR/SP/G            HT
                 (UTC) (F)     (DEG/KT/KT) (MB)    (FT)
BURNS HARBOR     1900   84     180/  7/ 14 1014.9F
MICHIGAN CITY    1900   68      10/  9/  9   N/A
5NW MICH CITY    2000   65 61   50/  6/  8   N/A     0

$$

INZ004-005-014>016-021>024-252100-
NORTH CENTRAL INDIANA

CITY           SKY/WX    TMP DP  RH WIND       PRES   REMARKS
ELKHART        MOSUNNY   84  64  51 S9        29.99F
GOSHEN         MOSUNNY   83  57  41 S12G21    29.99F
LOGANSPORT +   MOSUNNY   86  59  39 SW9       30.01S
PERU/GRISSOM   MOSUNNY   84  62  46 S12G22    29.99F
ROCHESTER +    MOSUNNY   88  59  37 S10G17    30.00F
SOUTH BEND     MOSUNNY   84  60  44 S13       29.98F
WARSAW +       MOSUNNY   82  59  44 S5        30.00F

$$

INZ006>009-017-018-025>027-252100-
NORTHEAST INDIANA

CITY           SKY/WX    TMP DP  RH WIND       PRES   REMARKS
ANGOLA *+      PTSUNNY   82  61  47 S10       30.02F
AUBURN +       MOSUNNY   82  55  39 SW7       30.03F
FORT WAYNE     PTSUNNY   84  58  40 SW15G21   30.02F
HUNTINGTON +   PTSUNNY  N/A N/A N/A S7        30.01F

$$

INZ028-029-035-036-043>045-051>053-252100-
WEST CENTRAL INDIANA

CITY           SKY/WX    TMP DP  RH WIND       PRES   REMARKS
CRAWFORDSVL +  MOSUNNY   82  62  51 S17       30.01F
GREENCASTLE +  MOSUNNY   81  68  65 S14       30.03F
LAFAYETTE      MOSUNNY   83  62  49 S13       29.98F
TERRE HAUTE    MOSUNNY   82  64  54 S15G23    30.01F

$$

INZ030>032-037>040-046>048-054>057-064-065-252100-
CENTRAL INDIANA

CITY           SKY/WX    TMP DP  RH WIND       PRES   REMARKS
ANDERSON       MOSUNNY   82  59  44 SW12G17   30.05F
CP ATTERBURY + MOSUNNY   82  63  51 S9G16     30.05F
COLUMBUS       PTSUNNY   82  63  51 S9G17     30.05F
FISHERS *+     PTSUNNY   82  66  57 S9        30.03F
FRANKFORT +      N/A     85  46  25 SW12G24   30.03F
GREENWOOD *+   PTSUNNY   82  61  47 S9        30.04F
INDIANAPOLIS   PTSUNNY   83  63  50 SW17      30.02F
-EAGLE CREEK   PTSUNNY   82  61  48 S8        30.02F
KOKOMO *+      MOSUNNY   84  63  48 SW13G24   30.01S
MARION +       MOSUNNY   84  58  42 S15G22    30.02F
SHELBYVILLE    PTSUNNY   84  61  45 SW12      30.03F
ZIONSVILLE +   PTSUNNY   82  61  47 SW15      30.03F

$$

INZ033-034-041-042-049-050-058-059-252100-
EAST CENTRAL INDIANA

CITY           SKY/WX    TMP DP  RH WIND       PRES   REMARKS
MUNCIE         MOSUNNY   86  58  38 SW15G22   30.03F

$$

INZ060-061-067>069-081>083-085>088-252100-
SOUTHWEST INDIANA

CITY           SKY/WX    TMP DP  RH WIND       PRES   REMARKS
EVANSVILLE     LGT RAIN  69  65  86 SW12      30.08F
HUNTINGBURG *+ CLOUDY    75  64  69 SW10      30.06S
WASHINGTON +   CLOUDY    77  65  68 S13G22    30.05S

$$

INZ062-063-066-070>080-084-089>092-252100-
SOUTH CENTRAL AND SOUTHEAST INDIANA

CITY           SKY/WX    TMP DP  RH WIND       PRES   REMARKS
BEDFORD +      MOSUNNY   79  72  78 S8        30.05F
BLOOMINGTON    CLOUDY    83  63  50 S12       30.04F
MADISON *+     CLOUDY    81  59  47 S6        30.10F
NORTH VERNON + MOSUNNY   82  70  65 CALM      30.07F
SEYMOUR +      CLOUDY    84  64  51 S12       30.05F

$$





USA.gov is the U.S. government's official web portal to all federal, state and local government web resources and services.